This is the latest recevied weather packets stored in our database for station/object VE3VGJ. If no packets are shown the sender has not sent any weather packets the latest 10 day(s).
| Time | Temp. | Humidity | Pressure | Rain* | Wind** | Luminosity | Snow |
|---|---|---|---|---|---|---|---|
| 1777375557 | 11.67° C | 62% | 1010.1 hPa | 0 mm | - | 93 W/m² | - |
| 1777375253 | 11.67° C | 62% | 1010.1 hPa | 0 mm | - | 78 W/m² | - |
| 1777374949 | 11.67° C | 62% | 1010.1 hPa | 0 mm | - | 71 W/m² | - |
| 1777374645 | 11.67° C | 63% | 1010.2 hPa | 0 mm | - | 64 W/m² | - |
| 1777374341 | 11.67° C | 63% | 1010.5 hPa | 0 mm | - | 57 W/m² | - |
| 1777374038 | 11.67° C | 63% | 1010 hPa | 0 mm | - | 49 W/m² | - |
| 1777373734 | 11.67° C | 63% | 1010.2 hPa | 0 mm | - | 41 W/m² | - |
| 1777373433 | 11.67° C | 63% | 1010.5 hPa | 0 mm | - | 34 W/m² | - |
| 1777373128 | 11.67° C | 62% | 1010.5 hPa | 0 mm | - | 28 W/m² | - |
| 1777372823 | 11.67° C | 63% | 1010.7 hPa | 0 mm | - | 21 W/m² | - |
| 1777372518 | 11.67° C | 62% | 1010.6 hPa | 0 mm | - | 15 W/m² | - |
| 1777372216 | 11.67° C | 63% | 1010.4 hPa | 0 mm | - | 11 W/m² | - |
| 1777371916 | 11.67° C | 62% | 1010.7 hPa | 0 mm | - | 8 W/m² | - |
| 1777371612 | 11.67° C | 63% | 1011 hPa | 0 mm | - | 6 W/m² | - |
| 1777371309 | 11.67° C | 62% | 1011 hPa | 0 mm | - | 4 W/m² | - |
| 1777371006 | 11.67° C | 62% | 1011 hPa | 0 mm | - | 2 W/m² | - |
| 1777370701 | 11.67° C | 62% | 1011.1 hPa | 0 mm | - | 1 W/m² | - |
| 1777370397 | 11.67° C | 62% | 1011.2 hPa | 0 mm | - | 1 W/m² | - |
| 1777370093 | 11.67° C | 61% | 1011.3 hPa | 0 mm | - | 0 W/m² | - |
| 1777369791 | 11.67° C | 61% | 1011.4 hPa | 0 mm | - | 0 W/m² | - |
| 1777369490 | 11.67° C | 60% | 1011.4 hPa | 0 mm | - | 0 W/m² | - |
| 1777369186 | 11.67° C | 60% | 1011.2 hPa | 0 mm | - | 0 W/m² | - |
| 1777368885 | 12.22° C | 59% | 1011.6 hPa | 0 mm | - | 0 W/m² | - |
| 1777368585 | 12.22° C | 59% | 1011.6 hPa | 0 mm | - | 0 W/m² | - |
| 1777368281 | 12.22° C | 58% | 1011.6 hPa | 0 mm | - | 0 W/m² | - |
* Rain latest hour (hover to see other rain measurements)
** Current wind speed in m/s (hover to see current wind gust speed)